User: anonymous   Login
Location: Norwich
(52.6280°N, 1.3030°E)
Time: 09:00:52
(UTC+01:00)
Language:

ATLAS 5 CENTAUR R/B - Orbit

View from above orbital plane
View from above orbital plane
View from above satellite
View from above satellite

Ground track
Ground track

The orbit data is extracted from the following two-line orbital elements,

1 32379U 07060B   16220.00680717 0.00008500  00000-0  43519-3 0    08
2 32379  60.7719 337.6357 5218647 272.2473  87.7561  5.33640694    04
Epoch (UTC): 07 August 2016 00:09:48
Eccentricity: 0.5218647
inclination: 60.7719°
perigee height: 236 km
apogee height: 14673 km
right ascension of ascending node: 337.6357°
argument of perigee: 272.2473°
revolutions per day: 5.33640694
mean anomaly at epoch: 87.7561°
orbit number at epoch: 0

The dashed part of the orbit path shows where the satellite is in the earth's shadow,  

DLR